Weather observations for the past three days for
Fentress, Naval Auxiliary Landing Field
Imperial (Metric)
Date Time (edt) Wind (mph) Vis. (mi.) Weather Sky Cond. Temperature (ºF) Relative Humidity Wind Chill (°F) Heat Index (°F) Pressure Precipitation (in)
Air Dwpt 6 hour altimeter (in) sea level (mb) 1 hr 3 hr 6 hr
Max. Min.
23 00:56 SW 3 10.00 Fair CLR 75.9 71.1 85% 76 30.03 1017.0
22 23:56 Vrbl 5 10.00 Fair CLR 77 71.1 82% 79 30.03 1017.0
22 22:56 Vrbl 7 10.00 A Few Clouds FEW095 79 73.9 85% 83 30.04 1017.3 0.02
22 21:56 Calm 10.00 Partly Cloudy FEW065 SCT080 80.1 75 85% 85 30.02 1016.9 0.01
22 20:56 Calm 9.00 Light Rain SCT008 BKN014 OVC026 79 75 88% 83 30 1016.1 0.01
22 19:56 Calm 10.00 Light Rain BKN012 OVC026 80.1 75 90 80.1 85% 85 30 1016.0 0.02 0.11
22 18:56 Calm 7.00 Thunderstorm Light Rain FEW032 BKN042 OVC095 81 75.9 85% 87 30.01 1016.3 0.04
22 17:56 Vrbl 3 3.00 Thunderstorm Rain SCT090 BKN110 81 75 82% 87 30 1016.0 0.05
22 16:56 SE 6 10.00 A Few Clouds FEW075 FEW095 82.9 75 77% 90 29.98 1015.4
22 15:56 S 14 G 22 10.00 Mostly Cloudy FEW025 BKN041 BKN050 86 73 65% 93 29.99 1015.9
22 14:56 S 14 G 21 10.00 Mostly Cloudy BKN032 BKN065 88 73 61% 96 30 1016.2
22 13:56 Vrbl 6 G 16 10.00 Mostly Cloudy FEW041 BKN110 87.1 73.9 87.1 78.1 65% 95 30.03 1017.2 0.01
22 12:56 Vrbl 5 10.00 Mostly Cloudy SCT026 BKN034 BKN043 86 73 65% 93 30.05 1017.7
22 11:56 S 7 10.00 Mostly Cloudy SCT021 BKN028 86 73.9 67% 94 30.06 1018.2
22 10:56 Calm 10.00 Mostly Cloudy BKN014 82.9 75 77% 90 30.07 1018.4 0.01
22 09:56 Calm 10.00 Overcast SCT007 BKN013 OVC065 80.1 75.9 87% 85 30.07 1018.5
22 08:56 Calm 10.00 Mostly Cloudy SCT070 BKN100 78.1 73.9 87% 81 30.07 1018.5 0.01
22 07:56 Calm 10.00 Mostly Cloudy FEW042 SCT065 BKN110 78.1 73.9 78.1 75 87% 81 30.06 1018.0 0.01 0.08
22 06:56 Calm 10.00 Light Rain FEW009 SCT095 OVC110 78.1 73 85% 81 30.05 1017.8 0.07
22 05:56 Calm 10.00 Mostly Cloudy SCT030 BKN036 BKN095 77 72 85% 78 30.04 1017.5
22 04:56 Calm 10.00 Fair CLR 77 72 85% 78 30.03 1017.2
22 03:56 Calm 10.00 Fair CLR 75.9 71.1 85% 76 30.04 1017.4
22 02:56 Calm 10.00 Fair CLR 75.9 71.1 85% 76 30.05 1017.7
22 01:56 Calm 10.00 Fair CLR 75.9 71.1 81 75 85% 76 30.07 1018.3
22 00:56 Calm 10.00 Fair CLR 75.9 70 82% 77 30.08 1018.6
21 23:56 S 3 10.00 Fair CLR 77 71.1 82% 79 30.08 1018.7
21 22:56 Calm 10.00 Fair CLR 77 71.1 82% 79 30.09 1019.0
21 21:56 Calm 10.00 Fair CLR 75 69.1 82% 75 30.08 1018.8
21 20:56 Calm 10.00 Fair CLR 78.1 70 76% 80 30.06 1018.1
21 19:56 E 6 10.00 Fair CLR 81 69.1 88 81 67% 84 30.04 1017.3
21 18:56 E 6 10.00 Fair CLR 82 69.1 65% 85 30.03 1017.0
21 17:56 E 9 10.00 A Few Clouds FEW024 84.9 71.1 63% 90 30.03 1017.1
21 16:56 E 6 10.00 A Few Clouds FEW080 84.9 72 65% 91 30.03 1017.2
21 15:56 E 7 10.00 Partly Cloudy SCT100 84.9 70 61% 89 30.04 1017.5
21 14:56 NE 6 10.00 Overcast SCT027 BKN034 OVC100 87.1 72 61% 94 30.05 1017.8
21 13:56 SE 9 10.00 Mostly Cloudy BKN041 87.1 72 90 75.9 61% 94 30.06 1018.1
21 12:56 N 3 10.00 Partly Cloudy FEW033 SCT120 89.1 72 57% 96 30.06 1018.1
21 11:56 Vrbl 3 10.00 A Few Clouds FEW120 87.1 71.1 59% 93 30.07 1018.4
21 10:56 Vrbl 3 10.00 A Few Clouds FEW021 84 71.1 65% 89 30.07 1018.4
21 09:56 NW 5 10.00 Fair CLR 81 72 74% 85 30.07 1018.3
21 08:56 Vrbl 5 10.00 Mostly Cloudy SCT009 BKN110 80.1 73 79% 84 30.07 1018.4
21 07:56 Vrbl 3 10.00 Overcast OVC006 75.9 71.1 77 73.9 85% 76 30.06 1018.2
21 06:56 Calm 10.00 A Few Clouds FEW120 73.9 70 88% 30.05 1017.8
21 05:56 Calm 10.00 Fair CLR 73.9 69.1 85% 30.04 1017.3
21 04:56 Calm 10.00 Fair CLR 73.9 70 88% 30.02 1016.8
21 03:56 Vrbl 3 10.00 Overcast OVC023 75.9 70 82% 77 30.02 1016.6
21 02:56 Vrbl 6 10.00 Overcast SCT009 OVC018 77 71.1 82% 79 30.02 1016.8
21 01:56 Vrbl 3 10.00 Overcast OVC006 77 72 79 75.9 85% 78 30.02 1016.8 0.01
21 00:56 Vrbl 3 10.00 Mostly Cloudy FEW005 BKN120 77 72 85% 78 30.01 1016.4
20 23:56 NW 5 10.00 Fair CLR 77 72 85% 78 30.01 1016.4 0.01
20 22:56 Vrbl 3 10.00 Light Rain BKN110 77 72 85% 78 30.03 1016.9
20 21:56 Calm 10.00 Fair CLR 78.1 72 82% 80 30.04 1017.3
20 20:56 Calm 10.00 Fair CLR 78.1 71.1 79% 80 30.02 1016.7
20 19:56 Calm 10.00 Overcast FEW035 BKN055 OVC080 79 72 90 79 79% 82 30.01 1016.5
20 18:56 Vrbl 5 10.00 Overcast FEW033 BKN065 OVC080 79 70 74% 82 30 1016.2
20 17:56 SW 3 10.00 Thunderstorm FEW070 SCT095 88 72 59% 95 29.98 1015.4
20 16:56 SW 8 10.00 Partly Cloudy FEW036 FEW045 SCT060 88 71.1 57% 94 30 1016.2
20 15:56 Vrbl 7 10.00 A Few Clouds FEW036 89.1 72 57% 96 30.01 1016.3
20 14:56 Vrbl 5 10.00 Mostly Cloudy SCT030 BKN040 BKN050 88 73 61% 96 30.03 1017.1
20 13:56 SW 7 G 17 10.00 Partly Cloudy SCT030 SCT090 88 73.9 88 79 63% 97 30.05 1017.8 0.01
20 12:56 S 8 10.00 Mostly Cloudy SCT021 BKN100 86 73.9 67% 94 30.07 1018.4
20 11:56 S 7 10.00 Mostly Cloudy FEW017 BKN026 84.9 77 77% 95 30.08 1018.7
20 10:56 Vrbl 3 10.00 Overcast BKN016 OVC021 82 73 74% 87 30.09 1019.0 0.01
20 09:56 S 5 10.00 Partly Cloudy SCT008 81 75.9 85% 87 30.09 1019.0
20 08:56 S 3 10.00 Mostly Cloudy FEW007 SCT065 BKN110 79 73 82% 82 30.1 1019.4 0.01
20 07:56 S 3 10.00 Mostly Cloudy SCT049 SCT065 BKN090 79 73 80.1 75.9 82% 82 30.1 1019.4
20 06:56 Calm 10.00 A Few Clouds FEW110 77 72 85% 78 30.08 1018.8
20 05:56 Calm 10.00 A Few Clouds FEW017 FEW037 75.9 71.1 85% 76 30.07 1018.6
20 04:56 Calm 10.00 A Few Clouds FEW018 77 72 85% 78 30.07 1018.4
20 03:56 Calm 10.00 Mostly Cloudy BKN029 BKN060 78.1 72 82% 80 30.07 1018.3
20 02:56 Calm 10.00 Overcast SCT034 OVC049 78.1 72 82% 80 30.08 1018.8
20 01:56 Calm 10.00 Overcast BKN038 OVC045 78.1 73 79 77 85% 81 30.09 1019.0
Date Time (edt) Wind (mph) Vis. (mi.) Weather Sky Cond. Air Dwpt Max. Min. Relative Humidity Wind Chill (°F) Heat Index (°F) altimeter (in) sea level (mb) 1 hr 3 hr 6 hr
6 hour
Temperature (ºF) Pressure Precipitation (in)